Notices

What's New in latest Release from April 7th, 2021:

- Updated Glossary, including Speed of Maximum Gust, and Total Hourly Precipitation

- Updated national and regional climate services offices contacts and prices information

- Addition of station inventory lists for 1981-2010, 1971-2000, and 1961-1990 Normals.

If you haven't already, please take our survey and provide feedback about our website: https://eccc.sondage-survey.ca/f/LanguageSelection.aspx?s=442ca660-fcf1-47c0-95a9-59707d6fd709

Hourly Data Report for May 12, 2021

MIRAMICHI RCS
NEW BRUNSWICK
Current Station Operator: ECCC - MSC

47°00'34.000" N
65°27'54.000" W
33.00 m
8100989
71744
ACQ

Download Data

Hourly Data (May 2021)
Hourly Data Report for May 12, 2021
TIME
LST
Temp Definition
°C
Dew Point Definition
°C
Rel Hum Definition
%
Precip. Amount Definition
mm

Wind Dir Definition
10's deg

Wind Spd Definition
km/h
Visibility Definition
km
Stn Press Definition
kPa
Hmdx Definition


Wind Chill Definition


Weather Definition


00:00 6.1 5.5 95 LegendMM 5 9   100.59     LegendNANA
01:00 6.1 5.3 95 LegendMM 5 13   100.55     LegendNANA
02:00 5.4 4.6 95 LegendMM 6 13   100.51     LegendNANA
03:00 5.1 3.8 91 LegendMM 7 15   100.51     LegendNANA
04:00 4.6 3.7 94 LegendMM 4 11   100.55     LegendNANA
05:00 4.3 3.4 94 LegendMM 4 10   100.58     LegendNANA
06:00 4.5 3.0 90 LegendMM 3 11   100.63     LegendNANA
07:00 4.7 3.2 90 LegendMM 2 6   100.69     LegendNANA
08:00 5.9 4.4 90 LegendMM 4 8   100.74     LegendNANA
09:00 6.9 3.8 81 LegendMM 3 11   100.78     LegendNANA
10:00 7.2 4.0 80 LegendMM 2 9   100.81     LegendNANA
11:00 7.2 4.2 81 LegendMM 4 9   100.86     LegendNANA
12:00 7.4 4.6 83 LegendMM 9 16   100.89     LegendNANA
13:00 6.7 4.7 88 LegendMM 10 10   100.91     LegendNANA
14:00 8.3 5.0 80 LegendMM 14 8   100.91     LegendNANA
15:00 8.4 4.6 77 LegendMM 10 11   100.90     LegendNANA
16:00 8.3 5.2 81 LegendMM 7 5   100.97     LegendNANA
17:00 8.4 4.6 77 LegendMM 9 5   101.03     LegendNANA
18:00 8.2 5.7 84 LegendMM 22 5   101.06     LegendNANA
19:00 8.3 6.0 85 LegendMM 21 6   101.10     LegendNANA
20:00 6.6 5.6 94 LegendMM 18 3   101.16     LegendNANA
21:00 6.4 5.7 96 LegendMM 17 6   101.22     LegendNANA
22:00 4.6 4.1 97 LegendMM 15 5   101.22     LegendNANA
23:00 4.0 3.6 98 LegendMM 25 2   101.23     LegendNANA

Notes on Data Quality.

Legend

  • E = Estimated
  • M = Missing
  • NA = Not Available*
  • [empty] = Indicates an unobserved value
Date modified: